Simultaneous Nadir Overpasses (SNOs) Predictions

Prediction of SNOs between FY3D and NOAA-19 Satellite Orbit:

Table of predicted SNOs for the next 14.0 days since TLE Epoch: 8/16/2019
Index Date (FY3D) Time (FY3D) Lat,Lon (FY3D) SZA (FY3D ) Date (NOAA-19) Time (NOAA-19) Lat,Lon (NOAA-19) SZA (NOAA-19 ) Distance(km) Time Diff (sec)
1 08/19/2019 03:05:24 79.79, 98.09 68.95 08/19/2019 03:04:20 79.80, 93.81 69.49 84.31 64
2 08/19/2019 03:56:15 -80.00, -96.65 110.65 08/19/2019 03:55:08 -79.99, -96.55 110.64 2.04 67
3 08/19/2019 04:47:00 80.00, 70.71 69.36 08/19/2019 04:46:13 79.99, 70.69 69.38 0.50 47
4 08/19/2019 05:37:44 -80.00,-121.97 110.64 08/19/2019 05:37:09 -79.99,-122.12 110.61 3.10 35
5 08/19/2019 06:28:29 79.99, 45.39 69.37 08/19/2019 06:28:13 80.01, 45.44 69.39 2.44 16
6 08/19/2019 07:19:13 -79.99,-147.30 110.62 08/19/2019 07:19:09 -80.00,-147.38 110.60 2.14 4
7 08/19/2019 08:09:59 80.02, 19.76 69.44 08/19/2019 08:10:14 80.01, 19.87 69.41 2.32 15
8 08/19/2019 09:00:43 -80.02,-172.93 110.55 08/19/2019 09:01:10 -80.00,-172.95 110.58 1.98 27
9 08/19/2019 09:51:28 80.01, -5.57 69.45 08/19/2019 09:52:15 80.00, -5.70 69.44 2.89 47
10 08/19/2019 10:42:12 -80.01, 161.75 110.54 08/19/2019 10:43:10 -80.02, 161.79 110.57 0.99 58




NCC Satellite Simultaneous Nadir Overpasses (SNOs) Prediction Service
